Simultaneous Nadir Overpasses (SNOs) Predictions

Prediction of SNOs between METOP-A and NOAA-19 Satellite Orbit:

Table of predicted SNOs for the next 14.0 days since TLE Epoch: 11/24/2017
Index Date (METOP-A) Time (METOP-A) Lat,Lon (METOP-A) SZA (METOP-A ) Date (NOAA-19) Time (NOAA-19) Lat,Lon (NOAA-19) SZA (NOAA-19 ) Distance(km) Time Diff (sec)
1 11/28/2017 05:35:42 77.90, 102.63 99.32 11/28/2017 05:34:43 77.90, 102.46 99.31 3.95 59
2 11/28/2017 06:26:24 -77.88, -90.12 80.69 11/28/2017 06:25:37 -77.87, -90.11 80.71 1.23 47
3 11/28/2017 07:17:04 77.88, 77.18 99.31 11/28/2017 07:16:44 77.88, 77.04 99.31 3.47 20
4 11/28/2017 08:07:46 -77.86,-115.57 80.71 11/28/2017 08:07:38 -77.86,-115.53 80.71 0.99 8
5 11/28/2017 08:58:26 77.86, 51.74 99.30 11/28/2017 08:58:45 77.87, 51.62 99.31 3.19 19
6 11/28/2017 09:49:08 -77.84,-141.01 80.72 11/28/2017 09:49:39 -77.84,-140.95 80.71 1.40 31
7 11/28/2017 10:39:48 77.83, 26.29 99.29 11/28/2017 10:40:46 77.85, 26.20 99.31 3.17 58
8 11/28/2017 11:30:30 -77.82,-166.46 80.73 11/28/2017 11:31:40 -77.83,-166.37 80.71 2.10 70




NCC Satellite Simultaneous Nadir Overpasses (SNOs) Prediction Service
